Wind_Speed
66 66 65 66 70 72 72 67 64 55 56 50 50 46 44 28 22 21 22 26 23 19 12 8 8 5 5 8 12 14 17 19 16 12 14 13 13 16 20 19 19 18 23 26
67 68 72 68 69 71 73 71 69 67 58 53 51 52 49 47 24 24 28 25 25 22 16 11 8 4 7 3 8 11 14 15 16 13 10 10 11 13 14 16 19 16 20 21
72 78 72 70 70 69 69 72 72 71 65 62 53 56 53 50 48 34 28 28 26 24 18 13 9 7 8 5 3 7 10 11 14 15 14 10 9 11 12 11 16 16 17 17
80 76 72 72 71 71 69 68 75 74 71 66 65 56 55 56 54 48 34 28 27 22 19 22 13 12 9 8 3 3 7 7 9 11 15 10 6 7 13 12 11 12 12 15
79 78 77 72 73 71 70 72 70 73 74 70 68 67 58 53 56 48 45 33 29 20 20 21 20 15 11 13 8 1 4 4 4 5 9 11 5 3 5 9 7 12 12 10
77 79 79 78 77 75 78 74 70 66 74 72 74 74 66 61 55 47 49 46 37 34 24 21 22 21 19 16 12 7 4 4 4 4 6 9 10 6 5 4 3 7 8 9
81 76 76 79 78 77 78 76 70 67 65 72 80 74 73 66 61 54 49 53 48 37 31 35 32 24 19 19 23 16 8 7 7 6 5 4 6 7 7 4 5 5 6 8
80 81 79 77 76 79 79 77 72 69 68 67 77 77 72 70 66 60 55 52 45 42 37 34 32 25 24 22 21 17 12 10 11 11 8 6 6 6 7 7 8 9 7 8
81 80 82 79 77 79 82 77 76 77 73 73 70 73 74 72 64 61 64 59 55 47 43 32 26 27 23 21 19 19 19 16 16 15 14 12 10 9 8 8 10 8 11 10
78 76 76 79 80 79 80 82 85 81 78 77 74 69 73 76 76 72 69 66 62 58 53 47 32 29 28 32 25 22 23 21 21 20 19 18 14 15 13 11 9 11 12 12
76 78 78 78 75 79 83 85 85 84 81 79 76 72 65 73 72 80 77 70 65 59 54 54 42 34 27 32 30 26 25 21 21 22 19 19 19 18 17 17 14 12 11 11
80 80 79 77 76 81 85 90 89 88 85 82 76 73 71 69 71 73 79 76 73 69 64 62 49 44 41 34 32 25 33 34 29 25 24 24 22 23 23 21 21 18 16 13
85 83 82 83 83 84 84 83 87 85 85 84 80 74 74 74 73 75 77 77 77 74 73 69 57 48 45 40 35 31 33 33 36 37 30 28 27 26 25 27 25 23 23 20
87 89 89 90 87 84 82 81 83 84 86 85 81 78 76 76 77 76 76 79 78 76 72 71 67 55 51 48 41 38 37 42 35 37 34 29 25 28 27 26 24 26 28 26
89 91 91 89 87 87 85 82 80 80 86 90 84 82 81 79 78 77 74 71 74 79 77 74 72 66 60 54 51 42 38 40 36 40 40 36 37 32 30 30 26 20 17 22
89 89 89 91 89 86 90 86 84 84 89 88 86 86 83 80 77 78 79 77 72 72 74 76 74 72 71 69 64 55 52 50 45 46 40 34 48 42 39 38 30 28 29 21
85 87 89 90 91 92 92 90 89 89 87 83 84 84 86 86 84 83 82 81 81 78 77 78 78 79 73 78 71 63 61 59 60 56 54 54 56 51 45 42 34 33 36 36
80 83 88 90 92 94 95 94 94 91 92 85 81 81 83 85 88 89 87 86 86 85 83 81 84 85 85 87 79 67 67 65 64 59 55 55 53 51 47 48 42 39 36 35
83 80 82 87 91 94 96 97 93 92 92 89 86 83 81 81 85 89 92 91 90 88 87 88 91 93 92 92 88 79 75 67 70 68 59 59 60 57 55 57 52 50 48 41
84 83 83 84 87 93 94 96 97 95 95 92 90 87 86 87 88 93 94 96 97 96 94 93 93 95 99 97 96 93 83 81 73 72 73 68 67 67 62 59 60 65 60 51
76 85 88 85 86 86 89 94 97 94 96 97 96 94 92 90 90 90 92 93 96 100 101 98 97 98 98 99 101 104 103 100 96 84 81 77 76 76 74 69 65 75 69 63
50 66 78 84 92 87 89 92 96 95 97 99 100 99 97 97 98 97 98 98 96 95 94 100 104 104 103 101 101 100 99 101 101 102 100 94 87 82 83 79 80 78 80 77
35 43 53 68 78 87 97 98 97 96 97 99 99 100 103 105 104 102 101 101 99 97 97 98 98 102 106 106 104 102 101 101 99 102 105 106 104 98 93 94 89 89 86 83
20 31 40 47 55 67 81 92 100 103 101 100 102 102 104 103 103 104 104 103 103 103 102 100 99 98 99 103 107 109 107 105 104 103 103 106 108 108 104 97 97 87 90 89
12 21 26 35 46 55 63 74 87 98 104 107 105 103 102 104 105 104 103 104 107 106 106 106 104 103 103 104 106 109 111 111 109 108 107 106 105 107 108 111 111 105 93 92
12 14 20 25 33 45 56 64 73 81 89 97 102 105 107 106 105 105 106 107 109 107 108 110 110 109 107 106 107 107 109 111 114 114 113 112 111 109 109 110 112 115 116 106
Wind_Direction
215 216 215 216 217 217 217 215 215 212 212 211 209 209 208 206 210 224 231 238 243 238 237 261 288 316 348 21 23 32 29 30 47 52 61 57 56 50 47 48 38 32 41 41
215 217 216 216 218 218 219 217 216 217 221 217 213 213 211 214 224 219 218 224 236 242 241 235 273 284 299 21 20 26 33 37 36 45 48 56 56 51 44 45 45 40 42 40
215 217 216 216 217 218 219 219 218 216 217 218 213 211 213 217 219 216 215 245 229 225 236 237 234 272 288 295 27 17 37 30 33 24 32 54 55 67 51 43 41 40 41 41
217 215 216 217 219 219 219 218 219 218 217 218 215 213 212 220 220 226 233 228 207 217 229 245 233 269 275 288 275 6 19 22 29 21 28 40 65 59 48 52 38 34 32 33
220 217 216 216 218 219 221 221 220 219 218 219 221 219 215 219 225 224 225 222 213 219 247 239 239 244 264 273 269 272 338 351 354 6 13 26 11 305 13 38 33 16 26 25
220 218 216 215 217 218 221 220 221 220 218 218 221 224 221 219 222 227 225 224 222 240 225 220 245 252 263 268 260 266 254 308 310 317 349 17 10 336 327 39 82 343 10 18
217 216 220 220 218 220 223 221 220 222 221 217 220 222 223 222 219 223 227 229 234 252 238 240 248 256 258 267 268 254 243 257 280 281 297 345 349 350 335 277 262 320 334 351
217 216 217 219 221 221 223 223 221 223 222 222 220 219 222 223 224 221 231 230 229 235 233 245 244 241 251 253 239 237 244 244 262 272 274 281 296 317 332 320 313 298 318 318
216 215 216 218 219 222 224 223 223 223 222 224 221 217 222 221 220 223 226 224 230 231 233 221 234 249 242 220 221 243 243 241 248 252 263 265 260 268 279 307 318 316 297 302
216 217 216 220 221 220 224 224 223 222 224 225 223 219 218 224 223 222 226 225 228 233 238 236 236 235 240 237 223 241 247 262 257 248 264 268 266 261 266 270 293 310 310 304
217 219 217 218 219 224 227 226 225 223 224 226 224 223 218 220 223 225 226 225 227 229 228 234 242 241 235 235 237 243 242 248 250 242 254 263 268 264 267 277 281 288 300 305
213 219 220 219 220 221 225 225 225 224 223 225 224 224 223 222 222 225 227 224 225 228 230 233 230 235 213 229 226 220 226 249 253 244 252 266 268 268 276 272 277 280 286 291
213 214 216 219 220 223 224 226 229 228 226 224 224 223 224 225 225 224 225 225 225 225 231 233 231 225 231 220 225 219 228 242 249 260 247 257 256 264 265 272 275 280 280 281
214 215 215 216 220 225 225 226 227 229 230 227 225 225 225 225 227 229 228 228 225 225 225 229 232 223 224 218 218 212 218 227 239 238 244 236 243 257 258 249 253 271 274 267
215 216 217 218 219 220 223 226 228 228 229 228 225 224 225 225 227 230 231 232 230 226 225 228 228 226 223 214 210 211 223 225 223 227 238 242 235 249 254 253 236 239 255 270
217 217 218 219 221 221 223 224 223 229 230 228 227 228 227 226 225 228 231 229 228 225 220 220 224 221 217 215 213 216 220 230 217 225 233 223 233 242 247 252 246 252 255 253
219 219 219 220 222 221 224 224 226 226 231 229 227 227 229 229 226 227 228 230 230 227 225 218 221 220 217 217 217 218 220 219 224 229 237 230 231 237 240 235 240 246 252 248
221 221 221 222 222 226 224 225 226 227 231 229 228 228 229 231 230 229 228 229 229 229 228 225 216 218 219 218 219 215 217 220 225 226 228 230 227 232 232 228 227 234 235 238
225 223 223 224 225 228 226 227 226 228 229 231 229 227 227 230 232 230 231 231 230 230 229 227 224 218 216 217 220 218 219 221 223 227 223 229 233 228 230 227 227 226 229 231
227 227 226 227 227 228 231 231 227 228 230 231 230 231 230 230 231 230 229 230 231 231 229 229 229 228 220 221 225 224 219 222 218 219 223 225 231 227 225 234 226 226 231 229
226 229 230 228 230 231 232 234 234 229 230 231 232 231 231 233 233 236 235 233 233 232 231 230 230 231 231 231 232 233 233 230 230 224 223 225 226 230 230 230 236 232 231 233
230 229 230 232 230 231 233 234 235 235 234 233 231 233 232 232 233 232 235 238 234 233 234 235 233 232 232 232 233 233 234 235 232 230 228 228 227 228 232 231 234 239 238 235
234 235 233 232 232 233 233 235 238 237 235 236 235 233 233 234 235 235 237 239 239 235 236 236 236 236 235 235 235 234 233 235 235 233 232 232 233 232 233 237 240 245 245 245
245 237 235 236 234 234 235 235 237 238 239 238 237 236 236 235 236 237 238 238 239 241 240 238 237 238 237 237 236 236 236 235 235 235 234 234 235 236 235 235 238 240 243 246
260 250 244 242 239 235 233 235 236 238 239 240 239 239 238 237 236 236 238 241 241 240 241 242 240 238 238 238 236 236 237 237 236 236 236 236 236 236 237 237 236 237 239 243
308 282 264 256 246 243 241 237 237 237 238 240 240 239 240 239 236 235 235 237 240 240 241 242 242 241 240 240 239 237 238 238 237 237 238 237 237 237 237 238 239 239 240 239
Height
10893 10902 10911 10914 10919 10931 10940 10953 10960 10968 10978 10986 10991 10995 11001 11005 11007 11012 11016 11021 11025 11026 11028 11027 11027 11029 11029 11027 11025 11024 11023 11021 11018 11016 11015 11014 11013 11012 11010 11009 11006 11004 11001 10997
10883 10887 10892 10903 10912 10922 10931 10942 10951 10964 10971 10979 10984 10987 10994 10998 11004 11007 11012 11016 11019 11021 11024 11027 11027 11028 11028 11028 11025 11024 11024 11023 11020 11018 11017 11015 11013 11012 11012 11011 11009 11008 11006 11004
10865 10860 10881 10893 10900 10911 10919 10930 10941 10951 10958 10966 10974 10982 10988 10993 10999 11002 11006 11011 11014 11018 11020 11025 11027 11027 11027 11028 11026 11025 11024 11024 11022 11019 11018 11017 11016 11016 11014 11013 11011 11010 11008 11008
10841 10860 10872 10882 10893 10900 10910 10913 10923 10938 10948 10955 10964 10972 10980 10987 10994 10996 11002 11007 11009 11012 11017 11019 11024 11025 11026 11028 11026 11025 11024 11023 11023 11021 11020 11020 11018 11018 11017 11014 11014 11012 11011 11009
10830 10848 10859 10873 10879 10890 10894 10900 10913 10925 10937 10949 10956 10962 10972 10980 10984 10990 10996 11001 11004 11008 11012 11016 11020 11022 11023 11025 11026 11025 11024 11023 11022 11022 11021 11021 11020 11019 11019 11018 11015 11014 11014 11012
10820 10832 10845 10856 10862 10874 10874 10891 10905 10913 10925 10938 10942 10949 10964 10969 10979 10985 10990 10995 10998 11002 11006 11011 11014 11018 11022 11023 11024 11025 11024 11022 11022 11021 11021 11020 11019 11019 11018 11018 11017 11016 11016 11015
10803 10822 10834 10845 10855 10861 10868 10881 10895 10902 10914 10924 10926 10940 10950 10962 10971 10977 10984 10987 10992 10997 11002 11005 11009 11013 11018 11020 11021 11023 11022 11021 11021 11022 11021 11021 11020 11020 11019 11018 11018 11016 11016 11016
10789 10805 10816 10829 10843 10850 10856 10869 10884 10891 10899 10899 10913 10931 10942 10953 10963 10972 10972 10978 10984 10988 10993 10998 11002 11006 11010 11015 11016 11021 11019 11019 11019 11020 11020 11020 11019 11019 11019 11018 11018 11017 11016 11017
10773 10791 10804 10819 10828 10837 10844 10859 10867 10872 10882 10889 10904 10922 10929 10940 10950 10954 10956 10968 10974 10980 10987 10993 10996 10999 11004 11008 11011 11015 11015 11014 11015 11016 11017 11018 11017 11017 11017 11016 11017 11016 11015 11016
10772 10786 10799 10808 10817 10826 10829 10836 10842 10858 10869 10877 10894 10911 10923 10927 10933 10940 10947 10960 10966 10972 10979 10985 10990 10995 10998 11002 11005 11007 11010 11010 11011 11013 11014 11016 11015 11014 11014 11013 11015 11015 11016 11014
10766 10769 10781 10791 10805 10813 10813 10820 10830 10843 10854 10866 10883 10898 10912 10915 10919 10925 10933 10945 10956 10964 10970 10977 10983 10988 10991 10996 11000 11000 11002 11004 11005 11006 11010 11011 11012 11012 11013 11012 11013 11014 11014 11015
10743 10751 10766 10779 10789 10787 10791 10795 10807 10823 10840 10854 10873 10887 10896 10900 10906 10913 10919 10931 10943 10951 10958 10966 10975 10981 10987 10988 10992 10993 10999 10999 10999 11002 11005 11007 11008 11009 11009 11011 11010 11012 11012 11013
10723 10734 10745 10754 10761 10766 10774 10788 10801 10815 10829 10842 10857 10873 10880 10886 10892 10897 10906 10916 10928 10938 10945 10955 10965 10971 10976 10980 10984 10987 10989 10989 10995 10997 11000 11002 11001 11003 11003 11006 11007 11008 11009 11010
10705 10714 10721 10727 10741 10757 10770 10779 10788 10799 10811 10826 10846 10858 10868 10874 10880 10886 10897 10905 10915 10924 10933 10943 10953 10960 10966 10972 10975 10977 10980 10983 10987 10989 10992 10994 10994 10997 10998 10998 11001 11004 11004 11004
10686 10698 10708 10721 10732 10742 10752 10763 10773 10782 10788 10802 10827 10837 10847 10860 10871 10879 10887 10895 10901 10909 10917 10926 10936 10946 10954 10961 10965 10968 10971 10974 10977 10981 10983 10985 10986 10989 10991 10992 10992 10994 10997 10999
10673 10689 10699 10706 10718 10730 10732 10746 10756 10759 10760 10796 10814 10824 10837 10848 10858 10865 10872 10880 10887 10893 10902 10909 10918 10928 10938 10945 10952 10955 10959 10964 10966 10968 10973 10978 10978 10981 10982 10984 10985 10985 10989 10991
10660 10676 10685 10696 10704 10711 10717 10728 10736 10742 10751 10779 10796 10807 10815 10827 10839 10846 10852 10861 10870 10878 10885 10892 10900 10909 10918 10928 10934 10938 10943 10948 10954 10957 10962 10965 10966 10969 10972 10975 10976 10977 10980 10983
10647 10659 10670 10680 10688 10691 10699 10710 10717 10730 10737 10758 10777 10792 10800 10807 10815 10824 10832 10840 10848 10855 10868 10878 10885 10889 10898 10907 10914 10921 10926 10930 10938 10943 10947 10952 10954 10957 10960 10962 10964 10968 10971 10973
10633 10646 10655 10663 10672 10676 10682 10690 10706 10714 10723 10740 10754 10768 10778 10784 10790 10800 10808 10817 10824 10835 10846 10852 10860 10868 10878 10888 10897 10902 10907 10915 10924 10929 10935 10939 10942 10945 10947 10950 10953 10957 10959 10962
10618 10629 10639 10646 10653 10659 10668 10674 10685 10698 10708 10723 10735 10748 10756 10761 10766 10771 10783 10789 10794 10807 10818 10828 10837 10847 10858 10866 10874 10882 10889 10899 10906 10911 10918 10923 10928 10931 10934 10935 10937 10942 10946 10947
10602 10611 10621 10631 10638 10649 10658 10661 10665 10686 10696 10699 10712 10724 10733 10741 10749 10756 10760 10766 10775 10786 10794 10805 10814 10822 10833 10844 10852 10860 10868 10878 10886 10894 10899 10905 10911 10915 10919 10922 10924 10926 10930 10934
10590 10596 10603 10612 10622 10633 10640 10641 10644 10658 10663 10672 10687 10696 10708 10715 10721 10727 10731 10737 10752 10766 10777 10782 10787 10796 10806 10816 10825 10835 10843 10851 10859 10869 10878 10885 10891 10895 10899 10903 10907 10909 10913 10916
10581 10583 10587 10593 10602 10611 10619 10623 10622 10631 10640 10648 10658 10669 10680 10687 10695 10704 10711 10718 10731 10742 10746 10751 10764 10776 10784 10794 10803 10812 10818 10825 10834 10845 10853 10860 10866 10874 10880 10884 10887 10889 10892 10897
10570 10572 10575 10577 10583 10590 10594 10600 10603 10607 10612 10621 10628 10637 10651 10662 10670 10680 10688 10697 10703 10708 10717 10727 10740 10748 10755 10766 10775 10784 10791 10801 10810 10818 10826 10833 10840 10848 10857 10863 10868 10871 10873 10876
10564 10563 10563 10564 10566 10568 10570 10573 10576 10580 10586 10594 10604 10611 10621 10634 10646 10658 10667 10672 10677 10685 10689 10697 10709 10718 10724 10734 10743 10751 10760 10773 10783 10791 10798 10806 10814 10822 10830 10837 10845 10850 10855 10858
10556 10554 10552 10551 10551 10551 10552 10554 10554 10555 10558 10566 10573 10584 10592 10601 10613 10627 10636 10643 10649 10658 10663 10666 10676 10684 10695 10705 10713 10723 10732 10741 10751 10761 10770 10779 10787 10795 10803 10810 10816 10823 10830 10837